Regional Weather Roundup
Issued by NWS Midland/Odessa, TX

Home | Current Version | Previous Version | Text Only | Print | Product List | Glossary On
Versions: 1 2 3 4 5 6 7 8 9 10 11 12 13 14 15 16 17 18 19 20 21 22 23 24 25 26 27 28 29 30 31 32 33 34 35 36 37 38 39 40 41 42 43 44 45 46 47 48 49 50
000
ASUS44 KMAF 310810
RWRMAF
MIDLAND AREA WEATHER ROUNDUP
NATIONAL WEATHER SERVICE MIDLAND TX
200 AM CST SAT JAN 31 2015

...IN SOUTHWEST TEXAS AND SOUTHEAST NEW MEXICO...

CITY           SKY/WX    TMP DP  RH WIND       PRES   REMARKS
ALPINE         CLOUDY    45  43  95 S8        30.08F
ANDREWS        LGT RAIN  39  38  97 E14       30.09F WCI  30
ARTESIA        DRIZZLE   37  37 100 NE6       30.09F WCI  33
BIG SPRING     CLOUDY    46  34  62 E8        30.13F
CARLSBAD       LGT RAIN  40  37  89 NE7       30.07F FOG     WCI  35
DRYDEN           N/A     49  46  90 E16       30.08F
FORT STOCKTON  CLOUDY    46  44  93 SE12G18   30.05F
GUAD PASS      LGT RAIN  35  35 100 NE21      30.05F WCI  24
HOBBS          LGT RAIN  37  37 100 E9        30.11F WCI  31
MARFA          CLOUDY    45  43  93 SE7       30.04F
MIDLAND AIRPK  RAIN      42  38  86 E8        30.10F WCI  37
MIDLAND INTL   LGT RAIN  42  38  85 E10       30.09F WCI  36
ODESSA         LGT RAIN  41  37  86 E9        30.09F FOG     WCI  35
PECOS          RAIN      43  42  95 NE6       30.06F WCI  40
PRESIDIO       LGT RAIN  50  48  93 NE5       30.01S
SEMINOLE       RAIN      38  37  95 E9        30.12F WCI  31
SNYDER         CLOUDY   N/A N/A N/A E7        30.16F
WINK           RAIN      43  38  82 E8        30.06F WCI  38
$$
...OTHER STATIONS IN TEXAS...

CITY           SKY/WX    TMP DP  RH WIND       PRES   REMARKS
ABILENE        CLOUDY    45  36  70 S7        30.19F
AMARILLO       LGT RAIN  33  32  96 S10       30.15F WCI  25
AUSTIN         CLOUDY    49  40  71 E3        30.23F
BROWNSVILLE    MOCLDY    62  60  93 E5        30.13F
CORPUS CHRISTI CLOUDY    59  55  87 E12       30.16F
DALLAS FTW     MOCLDY    49  29  46 SE12      30.26F
DEL RIO        CLOUDY    53  44  71 E12       30.15F
EL PASO        CLOUDY    44  40  85 N5        29.96F
HOUSTON INT    PTCLDY    43  37  79 E5        30.26F
LUBBOCK        LGT RAIN  36  34  92 E10       30.13F WCI  28
SAN ANGELO     CLOUDY    49  38  65 E3        30.15F
SAN ANTONIO    CLOUDY    52  43  71 SE12      30.22F
WACO           MOCLDY    48  34  58 E7        30.24F
WICHITA FALLS  NOT AVBL
$$
...OTHER LOCATIONS IN NEW MEXICO...

CITY           SKY/WX    TMP DP  RH WIND       PRES   REMARKS
ALAMAGORDO     LGT RAIN  41  41 100 N12       29.98F WCI  34
ALBUQUERQUE    CLOUDY    35  32  88 N5        29.99F WCI  31
CANNON AFB     CLOUDY    34  32  93 SE12      30.10F WCI  25
CLOVIS         CLOUDY    34  30  86 S13       30.12F WCI  25
HOLLOMAN AFB   LGT RAIN  42  42 100 CALM      29.97F
ROSWELL        CLOUDY    38  36  92 E3        30.08F
RUIDOSO        LGT RAIN  28  28 100 SE7       30.03F VSB<1/4 WCI  21
SANTA FE       CLOUDY    30  26  85 S8        30.01F WCI  22
TRUTH OR CONSE LGT RAIN  40  40 100 NE5       29.95F WCI  37
TUCUMCARI      LGT RAIN  35  33  92 CALM      30.10F FOG
$$


USA.gov is the U.S. government's official web portal to all federal, state and local government web resources and services.